Location: Nitra
(0.0000°N, 18.0833°E)
Time: 22:21:36
(UTC+02:00)

LilacSat-2 - Visible Passes

Search period start: 04 June 2023 00:00
Search period end: 14 June 2023 00:00
Orbit: 498 x 516 km, 97.5° (Epoch: 04 June)

Date Brightness Start Highest point End Pass type
(mag) Time Alt. Az. Time Alt. Az. Time Alt. Az.
04 Jun ? 05:39:14 10° ENE 05:40:57 13° ESE 05:42:40 10° SE visible
07 Jun ? 06:18:37 10° NNE 06:22:14 61° E 06:25:52 10° S visible
08 Jun ? 06:01:33 10° NE 06:04:47 30° ESE 06:08:02 10° SSE visible
09 Jun ? 05:45:01 10° ENE 05:47:19 16° ESE 05:49:38 10° SE visible
09 Jun ? 19:09:32 10° SSW 19:12:13 19° WSW 19:14:53 10° NW visible
13 Jun ? 06:07:34 10° NNE 06:10:58 37° ESE 06:14:23 10° S visible
